Location: Casteau
(50.5142°N, 4.0161°E)
Time: 05:23:23
(UTC+00:00)

Landsat 7 - Pass Details

Date: 18 September 2020
Orbit: 701 x 703 km, 98.1° (Epoch: 29 October)

Event Time Altitude Azimuth Distance (km) Brightness Sun altitude
Exits shadow 21:04:39 57° 282° (WNW) 832 4.3 -28.7°
Drops below altitude 10° 21:08:59 10° 339° (NNW) 2,184 7.1 -29.2°
Sets 21:11:17 0° 344° (NNW) 3,107 8.1 -29.4°
